Location: *
(37.5724°S, 58.0067°E)
Time: 06:16:56
(UTC+00:00)

Genesis I - Pass Details

Date: 18 January 2021
Orbit: 489 x 532 km, 64.5° (Epoch: 02 March)

Event Time Altitude Azimuth Distance (km) Brightness Sun altitude
Exits shadow 23:21:10 30° 266° (W) 976 4.2 -17.9°
Maximum altitude 23:22:11 35° 234° (SW) 876 4.2 -17.8°
Drops below altitude 10° 23:25:52 10° 167° (SSE) 1,779 6.8 -17.3°
Sets 23:28:11 0° 157° (SSE) 2,666 8.1 -16.9°
